Regional Weather Roundup
Issued by NWS

Home | Current Version | Previous Version | Graphics & Text | Print | Product List | Glossary On
Versions: 1 2 3 4 5 6 7 8 9 10 11 12 13 14 15 16 17 18 19 20 21 22 23 24 25 26 27
000
ASUS45 KCYS 201210
RWRWY

WYOMING REGIONAL WEATHER ROUNDUP
NATIONAL WEATHER SERVICE CHEYENNE WY
500 AM MST FRI JAN 20 2017

NOTE:  "FAIR" INDICATES FEW OR NO CLOUDS BELOW 12,000 FEET
WITH NO SIGNIFICANT WEATHER AND/OR OBSTRUCTIONS TO VISIBILITY.

WYZ001-201300-
YELLOWSTONE NATIONAL PARK

CITY           SKY/WX    TMP DP  RH WIND       PRES   REMARKS
LK YELLOWSTONE   N/A     19  18  95 CALM      29.55S
6HR MIN TEMP:  19; 6HR MAX TEMP:  23;

W YELLOWSTONE  NOT AVBL

$$
WYZ002>013-054>058-071-098>099-201300-
NORTHERN WYOMING

CITY           SKY/WX    TMP DP  RH WIND       PRES   REMARKS
JACKSON        CLOUDY    23  23 100 CALM      29.56S
CODY           FAIR      29  23  78 CALM      29.49S
GREYBULL       CLOUDY    26  21  81 N7        29.50F WCI  18
6HR MIN TEMP:  22; 6HR MAX TEMP:  27;

WORLAND        CLOUDY    27  24  89 CALM      29.51R
6HR MIN TEMP:  25; 6HR MAX TEMP:  30;

SHERIDAN       CLOUDY    34  30  85 W17       29.48S WCI  23
6HR MIN TEMP:  28; 6HR MAX TEMP:  37;

BUFFALO        CLOUDY    33  26  75 NW8       29.46S WCI  26
6HR MIN TEMP:  30; 6HR MAX TEMP:  37;

GILLETTE       CLOUDY    31  26  82 W12       29.45S WCI  22
6HR MIN TEMP:  26; 6HR MAX TEMP:  31;

HULETT         FAIR      23  19  86 W6        29.45R WCI  16
NEWCASTLE      FAIR      19  14  79 NW6       29.43S WCI  11

$$
WYZ014>020-022>026-101>103-201300-
CENTRAL WYOMING

CITY           SKY/WX    TMP DP  RH WIND       PRES   REMARKS
BIG PINEY      FOG        3   1  91 CALM      29.56S VSB 1/4
6HR MIN TEMP:   2; 6HR MAX TEMP:  11;

PINEDALE         N/A      3   0  85 CALM      29.56S FOG
DUBOIS         NOT AVBL
LANDER         CLOUDY    21  15  78 CALM      29.49S
6HR MIN TEMP:  19; 6HR MAX TEMP:  22;

RIVERTON       CLOUDY    20  14  77 CALM      29.51S
6HR MIN TEMP:  17; 6HR MAX TEMP:  20;

CASPER         LGT SNOW  30  28  92 SW8       29.48F FOG     WCI  22
6HR MIN TEMP:  30; 6HR MAX TEMP:  33; 6HR PCP: TRACE;

DOUGLAS        CLOUDY    34  26  72 NW13      29.46F WCI  25
6HR MIN TEMP:  27; 6HR MAX TEMP:  35;


$$
WYZ021-027>030-104>119-201300-
SOUTHERN WYOMING

CITY           SKY/WX    TMP DP  RH WIND       PRES   REMARKS
EVANSTON       FOG       23  20  88 W7        29.58S VSB 1/2 WCI  15
6HR MIN TEMP:  20; 6HR MAX TEMP:  26; 6HR PCP: TRACE;

ROCK SPRINGS   MOCLDY    21  19  92 W12       29.55F WCI   9
6HR MIN TEMP:  20; 6HR MAX TEMP:  24;

RAWLINS        CLOUDY    25  21  85 SW14      29.51F WCI  13
6HR MIN TEMP:  25; 6HR MAX TEMP:  28; 6HR PCP: TRACE;

LARAMIE        CLOUDY    22  19  89 E5        29.46F WCI  16
6HR MIN TEMP:  18; 6HR MAX TEMP:  24;

CHEYENNE       CLOUDY    32  21  64 NW5       29.45S WCI  27
6HR MIN TEMP:  31; 6HR MAX TEMP:  36;

TORRINGTON     FAIR      26  21  81 S5        29.43F WCI  20
6HR MIN TEMP:  25; 6HR MAX TEMP:  34;


$$




USA.gov is the U.S. government's official web portal to all federal, state and local government web resources and services.